Regional Weather Roundup
Issued by NWS

Home | Current Version | Previous Version | Graphics & Text | Print | Product List | Glossary On
Versions: 1 2 3 4 5 6 7 8 9 10 11 12 13 14 15 16 17 18 19 20 21 22 23 24 25 26 27 28 29 30 31 32 33 34 35 36 37 38 39 40 41 42 43 44 45 46 47 48 49 50
000
ASUS43 KLOT 160210
RWRIL

ILLINOIS REGIONAL WEATHER ROUNDUP
NATIONAL WEATHER SERVICE CHICAGO/ROMEOVILLE IL
900 PM CDT TUE APR 15 2014

NOTE: "FAIR" INDICATES FEW OR NO CLOUDS BELOW 12,000 FEET WITH NO
SIGNIFICANT WEATHER AND/OR OBSTRUCTIONS TO VISIBILITY.

* THESE STATIONS ARE NOT UNDER NWS QUALITY CONTROL. THEY ALSO MAY NOT
  REPORT WEATHER SUCH AS PRECIPITATION OR FOG.

ILZ001-002-007-009-015-016-024-160300-
NORTHWEST ILLINOIS

CITY           SKY/WX    TMP DP  RH WIND       PRES   REMARKS
MOLINE         CLEAR     31  20  63 S3        30.15R
STERLING*      CLEAR     30  18  59 CALM      30.16R
SAVANNA*       CLEAR     33  20  60 CALM      30.15S
$$

ILZ003-004-008-010-011-017-018-160300-
NORTH CENTRAL ILLINOIS

CITY           SKY/WX    TMP DP  RH WIND       PRES   REMARKS
ROCKFORD       CLEAR     34  17  50 CALM      30.18R
FREEPORT*      CLEAR     34  23  64 CALM      30.17R
ROCHELLE*      CLEAR     31  24  76 SW3       30.17R
DE KALB*       CLEAR     29  22  74 S3        30.18R
PERU*          CLEAR     37  17  44 CALM      30.18R
$$

ILZ005-006-012>014-019>023-160300-
NORTHEAST ILLINOIS

CITY           SKY/WX    TMP DP  RH WIND       PRES   REMARKS
CHICAGO-OHARE  PTCLDY    34  18  52 SW5       30.18R WCI  30
CHICAGO-MIDWAY PTCLDY    35  19  52 S6        30.19R WCI  30
AURORA         CLEAR     31  23  72 S3        30.18R
LANSING*       CLEAR     30  21  67 SW3       30.21R
WAUKEGAN       MOCLDY    30  21  69 SE8       30.18R WCI  22
DUPAGE AIRPORT FAIR      32  21  64 CALM      30.18R
KANKAKEE*      CLEAR     32  24  73 CALM      30.21R
WHEELING       CLEAR     32  20  61 SE5       30.20R WCI  27
MORRIS*        CLEAR     34  19  54 CALM      30.19R
ROMEOVILLE*    CLEAR     32  21  63 S5        30.20R WCI  28
NORTHERLY ISL    N/A     34  21  59 S5          N/A  WCI  30
$$

LMZ740>746-160300-
SOUTHERN LAKE MICHIGAN

STATION/POSITION SKY/WX   TEMP    WIND        PRES    VSBY  WAVE
                          AIR SEA DIR/SP/G                  HT/PER
                          (F)     (DEG/KT/KT) (MB)    (MI)  (FT/S)
WAUKEGAN HARBOR            32     160/ 15/ 17 1023.4S
HARRISON CRIB              33     130/ 12/ 15   N/A
BURNHAM HARBOR             34     160/  6/  9   N/A
CALUMET HARBOR             34     140/  3/  4 1023.3R
MICHIGAN CITY              31      70/  4/  6   N/A
$$

ILZ025>027-034>036-040-047-049-050-058-095>099-160300-
WEST-CENTRAL ILLINOIS

CITY           SKY/WX    TMP DP  RH WIND       PRES   REMARKS
QUINCY         PTCLDY    41  21  44 S5        30.14R
GALESBURG*     CLEAR     33  24  70 CALM      30.15R
MACOMB*        CLEAR     33  26  75 SE5       30.17S WCI  28
JACKSONVILLE*  PTCLDY    36  23  60 SE3       30.18R
PITTSFIELD*    PTCLDY    40  23  50 CALM      30.17R
$$

ILZ028>032-037-038-041>044-048-051>054-059>061-160300-
CENTRAL ILLINOIS

CITY           SKY/WX    TMP DP  RH WIND       PRES   REMARKS
PONTIAC        PTCLDY    36  27  69 SE5       30.20R WCI  32
BLOOMINGTON    CLEAR     33  18  54 CALM      30.20R
DECATUR        CLEAR     36  23  59 SE3       30.20R
PEORIA         CLEAR     37  19  48 CALM      30.18R
LACON*         CLEAR     32  23  70 CALM      30.18R
LINCOLN*       CLEAR     34  24  68 CALM      30.20R
SPRINGFIELD    PTCLDY    38  21  50 CALM      30.19R
TAYLORVILLE    CLEAR     36  27  69 CALM      30.20R
$$

ILZ033-039-045-046-055>057-062-063-160300-
EAST-CENTRAL ILLINOIS

CITY           SKY/WX    TMP DP  RH WIND       PRES   REMARKS
CHAMPAIGN      CLEAR     34  20  56 CALM      30.20R
RANTOUL*       CLEAR     36  27  70 CALM      30.21R
MATTOON        CLEAR     36  25  64 CALM      30.20R
PARIS*         CLEAR     33  27  78 CALM      30.23R
$$

ILZ079-100>102-160300-
SOUTHWEST ILLINOIS

CITY           SKY/WX    TMP DP  RH WIND       PRES   REMARKS
ALTON          CLEAR     37  25  60 CALM      30.19R
BELLEVILLE     CLEAR     40  25  54 SE3       30.19R
CAHOKIA*       CLEAR     42  25  50 E3        30.19R
SPARTA*        CLEAR     37  28  70 E6        30.21R WCI  33
$$

ILZ064>066-069>071-074>076-080>082-084>086-088>090-092>094-160300-
SOUTH-CENTRAL ILLINOIS

CITY           SKY/WX    TMP DP  RH WIND       PRES   REMARKS
CARBONDALE     CLEAR     37  28  70 E6        30.21R WCI  32
CAIRO*         CLEAR     43  26  51 E7        30.22R
MARION         CLEAR     37  27  65 E5        30.22S WCI  34
MT. VERNON     CLEAR     36  19  51 CALM      30.22S
CENTRALIA*       N/A     39  21  47 E3        30.21R
SALEM*         CLEAR     40  25  55 E3        30.21S
METROPOLIS*    CLEAR     40  20  44 NE3       30.21S
$$

ILZ067-068-072-073-078-083-087-091-160300-
SOUTHEAST ILLINOIS

CITY           SKY/WX    TMP DP  RH WIND       PRES   REMARKS
FLORA*         CLEAR     37  25  64 E3        30.23R
FAIRFIELD*     CLEAR     37  25  60 CALM      30.23R
HARRISBURG*    CLEAR     38  29  70 CALM      30.24S
ROBINSON*      CLEAR     36  31  82 CALM      30.24R
CARMI*         CLEAR     39  32  77 NE3       30.23S
$$

ABBREVIATIONS USED IN REMARKS
   TC - TEMPERATURE IN CELSIUS
  WCI - WIND CHILL INDEX
   HX - HEAT INDEX
  VSB - VISIBILITY
$$




USA.gov is the U.S. government's official web portal to all federal, state and local government web resources and services.